Regional Weather Roundup
Issued by NWS

Home | Current Version | Previous Version | Graphics & Text | Print | Product List | Glossary On
Versions: 1 2 3 4 5 6 7 8 9 10 11 12 13 14 15 16 17 18 19 20 21 22 23 24 25 26 27 28 29 30 31 32 33 34 35 36 37 38 39 40 41 42 43 44 45 46 47 48 49 50
000
ASUS43 KLOT 232203
RWRIL

ILLINOIS REGIONAL WEATHER ROUNDUP
NATIONAL WEATHER SERVICE CHICAGO/ROMEOVILLE IL
500 PM CDT SUN APR 23 2017

NOTE: "FAIR" INDICATES FEW OR NO CLOUDS BELOW 12,000 FEET WITH NO
SIGNIFICANT WEATHER AND/OR OBSTRUCTIONS TO VISIBILITY.

* THESE STATIONS ARE NOT UNDER NWS QUALITY CONTROL. THEY ALSO MAY NOT
  REPORT WEATHER SUCH AS PRECIPITATION OR FOG.

ILZ001-002-007-009-015-016-024-232300-
NORTHWEST ILLINOIS

CITY           SKY/WX    TMP DP  RH WIND       PRES   REMARKS
MOLINE         SUNNY     73  32  22 CALM      30.02F
STERLING*      SUNNY     72  31  22 CALM      30.03F
SAVANNA*       SUNNY     70  32  25 CALM      30.03S
$$

ILZ003-004-008-010-011-017-018-232300-
NORTH CENTRAL ILLINOIS

CITY           SKY/WX    TMP DP  RH WIND       PRES   REMARKS
ROCKFORD       MOSUNNY   72  36  26 CALM      30.03F
FREEPORT*      SUNNY     70  35  27 W3        30.04S
ROCHELLE*      SUNNY     70  32  24 CALM      30.03F
DE KALB*       SUNNY     70  31  24 NE3       30.04S
PERU*          SUNNY     70  25  19 CALM      30.04S
$$

ILZ005-006-012>014-019>023-232300-
NORTHEAST ILLINOIS

CITY           SKY/WX    TMP DP  RH WIND       PRES   REMARKS
CHICAGO-OHARE  MOSUNNY   70  31  23 E10       30.03S
CHICAGO-MIDWAY MOSUNNY   67  33  28 E10       30.05S
AURORA         SUNNY     71  33  24 N5        30.03S
LANSING*       SUNNY     65  35  32 NE8       30.05F
JOLIET*        SUNNY     72  33  23 E7        30.03S
WAUKEGAN       SUNNY     51  41  68 NE13      30.05R
DUPAGE AIRPORT SUNNY     71  33  24 E5        30.02S
KANKAKEE*      SUNNY     71  18  13 NE10      30.04F
WHEELING       SUNNY     68  32  26 E8        30.05R
MORRIS*        SUNNY     72  27  18 CALM      30.02S
ROMEOVILLE*    SUNNY     70  39  33 E9        30.04R
NORTHERLY ISL    N/A     59  42  53 SE2         N/A
$$

LMZ740>746-232300-
SOUTHERN LAKE MICHIGAN

STATION/POSITION SKY/WX   TEMP    WIND        PRES    VSBY  WAVE
                          AIR SEA DIR/SP/G                  HT/PER
                          (F)     (DEG/KT/KT) (MB)    (MI)  (FT/S)
HARRISON CRIB              55     140/ 11/ 12   N/A
BURNHAM HARBOR             58     130/  3/  7   N/A
CALUMET HARBOR             59      90/  7/  9 1017.2F
BURNS HARBOR               58      50/  4/  4 1018.3F
MICHIGAN CITY              55      10/  4/  4   N/A
ST. JOSEPH                 53 53   30/  2/  2 1018.5F         0
$$

ILZ025>027-034>036-040-047-049-050-058-095>099-232300-
WEST-CENTRAL ILLINOIS

CITY           SKY/WX    TMP DP  RH WIND       PRES   REMARKS
QUINCY         SUNNY     72  26  18 CALM      30.03F
GALESBURG*     SUNNY     71  28  20 CALM      30.03S
MACOMB*        SUNNY     71  27  19 NW3       30.05F
JACKSONVILLE*  SUNNY     70  27  19 N6        30.03S
PITTSFIELD*    SUNNY     72  27  19 E9        30.05S
$$

ILZ028>032-037-038-041>044-048-051>054-059>061-232300-
CENTRAL ILLINOIS

CITY           SKY/WX    TMP DP  RH WIND       PRES   REMARKS
PONTIAC        SUNNY     72  21  14 E6        30.03S
BLOOMINGTON    SUNNY     71  26  18 NE13G18   30.03F
DECATUR        SUNNY     71  33  24 NE13      30.01F
PEORIA         SUNNY     71  25  17 NE5       30.04S
LACON*         SUNNY     70  30  22 N5        30.02F
LINCOLN*       SUNNY     73  27  18 NE9G20    30.02S
SPRINGFIELD    SUNNY     74  29  19 NE7       30.02F
TAYLORVILLE    SUNNY     72  29  20 NE13G22   30.01F HAZE
$$

ILZ033-039-045-046-055>057-062-063-232300-
EAST-CENTRAL ILLINOIS

CITY           SKY/WX    TMP DP  RH WIND       PRES   REMARKS
CHAMPAIGN      SUNNY     72  28  19 NE14      30.01F
RANTOUL*       SUNNY     73  28  18 E7G17     30.02S
MATTOON        SUNNY     71  29  21 N16G25    29.98F
PARIS*         SUNNY     71  31  22 NE10G17   30.00S
$$

ILZ079-100>102-232300-
SOUTHWEST ILLINOIS

CITY           SKY/WX    TMP DP  RH WIND       PRES   REMARKS
ALTON          SUNNY     72  28  20 N16       30.01F
BELLEVILLE     SUNNY     73  32  22 N12G21    29.97F
CAHOKIA*       SUNNY     73  26  17 N15G21    30.00F
SPARTA*        SUNNY     69  34  26 N14G20    29.99R
$$

ILZ064>066-069>071-074>076-080>082-084>086-088>090-092>094-232300-
SOUTH-CENTRAL ILLINOIS

CITY           SKY/WX    TMP DP  RH WIND       PRES   REMARKS
CARBONDALE     SUNNY     69  39  33 NE13G23   29.95F
CAIRO*         SUNNY     68  41  37 NE17G23   29.92S
EFFINGHAM*     SUNNY     72  31  22 N12G18    29.99S
MARION         SUNNY     70  36  28 N17G24    29.94F
MT. VERNON     SUNNY     72  33  24 VRB7      29.95F
CENTRALIA*     SUNNY     72  36  27 N14G20    29.96S
SALEM*         SUNNY     72  31  22 N13G21    29.96F
METROPOLIS*    SUNNY     69  39  33 N14G23    29.92S
$$

ILZ067-068-072-073-078-083-087-091-232300-
SOUTHEAST ILLINOIS

CITY           SKY/WX    TMP DP  RH WIND       PRES   REMARKS
LAWRENCEVILLE  SUNNY     72  32  23 NE17      29.95R
FLORA*         SUNNY     73  28  19 NE13      29.96S
FAIRFIELD*     SUNNY     71  33  24 NE10G17   29.93F
HARRISBURG*    SUNNY     69  40  35 N13G21    29.94S
ROBINSON*      SUNNY     72  32  23 NE18      29.96S
CARMI*         SUNNY     70  39  32 N14G21    29.92S
$$

ABBREVIATIONS USED IN REMARKS
   TC - TEMPERATURE IN CELSIUS
  WCI - WIND CHILL INDEX
   HX - HEAT INDEX
  VSB - VISIBILITY
$$




USA.gov is the U.S. government's official web portal to all federal, state and local government web resources and services.